DD3UTS-13 Weather Reports


Display with metric or nautical units.
time (UTC)temp
F
wind
direction
speed
MPH
gust
MPH
rain 1hr
in
rain 24hr
in
rain mn
in
humidity
%
barometer
mb
20260507065532 49 355 0.0 0.0 0.00 0.16 0.00 89 1008.9
20260507065031 49 355 3.0 0.0 0.00 0.16 0.00 89 1008.9
20260507064532 50 357 3.0 0.0 0.00 0.16 0.00 89 1008.8
20260507064032 50 15 0.0 0.0 0.00 0.16 0.00 89 1008.7
20260507063532 50 352 0.0 0.0 0.00 0.15 0.00 89 1008.7
20260507063031 50 352 0.0 0.0 0.00 0.15 0.00 89 1008.6
20260507062531 49 8 3.0 0.0 0.00 0.15 0.00 89 1008.6
20260507062032 49 10 3.0 0.0 0.00 0.15 0.00 89 1008.5
20260507061531 50 0 0.0 0.0 0.00 0.15 0.00 89 1008.5
20260507061032 50 0 0.0 0.0 0.00 0.14 0.00 89 1008.4
20260507060532 50 12 0.0 0.0 0.00 0.13 0.00 89 1008.4
20260507060032 50 12 0.0 0.0 0.00 0.13 0.00 89 1008.4
20260507055532 50 12 0.0 0.0 0.00 0.11 0.00 89 1008.4
20260507055031 50 12 0.0 0.0 0.00 0.11 0.00 89 1008.3
20260507054531 50 12 0.0 0.0 0.00 0.10 0.00 89 1008.3
20260507054031 50 8 0.0 0.0 0.00 0.09 0.00 89 1008.2
20260507053531 50 5 0.0 0.0 0.00 0.09 0.00 89 1008.2
20260507053032 49 3 0.0 0.0 0.00 0.08 0.00 89 1008.1
20260507052532 49 3 0.0 0.0 0.00 0.07 0.00 89 1008.1
20260507052033 49 3 0.0 0.0 0.00 0.06 0.00 89 1008.0
20260507051532 49 3 0.0 0.0 0.00 0.04 0.00 89 1008.0
20260507051031 49 3 2.0 0.0 0.00 0.03 0.00 89 1007.9
20260507050531 49 10 0.0 0.0 0.00 0.02 0.00 89 1007.9
20260507050031 49 12 3.0 0.0 0.00 0.21 0.00 89 1007.9
20260507045531 49 17 0.0 0.0 0.00 0.21 0.00 89 1007.8
20260507045031 49 17 0.0 0.0 0.00 0.18 0.00 89 1007.8
20260507044532 49 17 0.0 0.0 0.00 0.18 0.00 89 1007.8
20260507044032 49 17 0.0 0.0 0.00 0.17 0.00 89 1007.6
20260507043531 50 25 3.0 0.0 0.00 0.15 0.00 89 1007.6
20260507043031 49 352 3.0 0.0 0.00 0.15 0.00 89 1007.6
20260507042531 50 17 0.0 0.0 0.00 0.15 0.00 89 1007.5
20260507042032 50 0 0.0 0.0 0.00 0.15 0.00 89 1007.5
20260507041531 50 357 4.0 0.0 0.00 0.15 0.00 89 1007.4
20260507041031 50 12 0.0 0.0 0.00 0.15 0.00 89 1007.3
20260507040531 50 355 0.0 0.0 0.00 0.15 0.00 89 1007.3
20260507040032 50 15 3.0 0.0 0.00 0.15 0.00 89 1007.3
20260507035531 50 12 3.0 0.0 0.00 0.15 0.00 89 1007.3
20260507035031 51 35 0.0 0.0 0.00 0.14 0.00 89 1007.2
20260507034532 51 0 4.0 0.0 0.00 0.14 0.00 89 1007.2
20260507034031 51 10 4.0 0.0 0.00 0.14 0.00 89 1007.2
20260507033532 51 352 3.0 0.0 0.00 0.14 0.00 89 1007.2
20260507033031 51 5 4.0 0.0 0.00 0.14 0.00 89 1007.2
20260507032532 51 347 0.0 0.0 0.00 0.14 0.00 89 1007.2
20260507032032 51 3 0.0 0.0 0.00 0.13 0.00 89 1007.1
20260507031531 51 8 0.0 0.0 0.00 0.13 0.00 89 1007.1
20260507031032 51 5 0.0 0.0 0.00 0.13 0.00 89 1007.1
20260507030532 51 8 0.0 0.0 0.00 0.12 0.00 89 1007.1
20260507030032 51 8 0.0 0.0 0.00 0.11 0.00 88 1007.1
20260507025531 51 8 0.0 0.0 0.00 0.11 0.00 88 1007.1
20260507025032 51 8 0.0 0.0 0.00 0.09 0.00 88 1007.1
20260507024532 51 355 0.0 0.0 0.00 0.09 0.00 88 1007.0
20260507024031 51 347 0.0 0.0 0.00 0.09 0.00 88 1007.0
20260507023531 51 315 3.0 0.0 0.00 0.09 0.00 88 1007.0
20260507023031 51 310 3.0 0.0 0.00 0.09 0.00 88 1007.1
20260507022532 51 307 4.0 0.0 0.00 0.09 0.00 88 1007.1
20260507022031 51 355 0.0 0.0 0.00 0.09 0.00 88 1007.1
20260507021531 51 342 0.0 0.0 0.00 0.09 0.00 88 1007.1
20260507021031 51 330 3.0 0.0 0.00 0.09 0.00 88 1007.0
20260507020532 51 292 3.0 0.0 0.00 0.09 0.00 88 1007.0
20260507020031 51 320 4.0 0.0 0.00 0.09 0.00 88 1007.0
20260507015532 51 320 0.0 0.0 0.00 0.09 0.00 88 1007.0
20260507015032 51 355 4.0 0.0 0.00 0.09 0.00 88 1006.9
20260507014531 51 320 0.0 0.0 0.00 0.09 0.00 88 1006.9
20260507014032 51 10 0.0 0.0 0.00 0.09 0.00 88 1006.9
20260507013531 51 17 0.0 0.0 0.00 0.09 0.00 88 1006.9
20260507013031 51 15 0.0 0.0 0.00 0.09 0.00 88 1006.8
20260507012531 51 10 3.0 0.0 0.00 0.09 0.00 88 1006.7
20260507012031 51 355 3.0 0.0 0.00 0.09 0.00 88 1006.6
20260507011532 51 57 4.0 0.0 0.00 0.09 0.00 88 1006.5
20260507011031 51 120 5.0 0.0 0.00 0.09 0.00 88 1006.4
20260507010532 51 130 5.0 0.0 0.00 0.09 0.00 88 1006.4
20260507010032 51 135 5.0 0.0 0.00 0.09 0.00 88 1006.3
20260507005531 51 137 5.0 0.0 0.00 0.09 0.00 87 1006.3
20260507005032 51 147 4.0 0.0 0.00 0.09 0.00 87 1006.3
20260507004532 51 195 4.0 0.0 0.00 0.09 0.00 87 1006.3
20260507004032 51 202 5.0 0.0 0.00 0.09 0.00 87 1006.3
20260507003531 51 140 4.0 0.0 0.00 0.09 0.00 87 1006.3
20260507003032 51 165 4.0 0.0 0.00 0.09 0.00 87 1006.3
20260507002532 51 145 4.0 0.0 0.00 0.09 0.00 87 1006.3
20260507002031 51 122 3.0 0.0 0.00 0.09 0.00 87 1006.2
20260507001532 51 110 0.0 0.0 0.00 0.09 0.00 87 1006.2
20260507001032 51 82 3.0 0.0 0.00 0.09 0.00 87 1006.3
20260507000532 51 100 0.0 0.0 0.00 0.09 0.00 87 1006.3
20260507000032 51 100 0.0 0.0 0.00 0.09 0.00 87 1006.3
20260506235532 51 50 0.0 0.0 0.00 0.09 0.00 87 1006.4
20260506235031 51 52 0.0 0.0 0.00 0.09 0.00 87 1006.4
20260506234531 51 15 0.0 0.0 0.00 0.09 0.00 87 1006.4
20260506234032 51 10 4.0 0.0 0.00 0.09 0.00 87 1006.3
20260506233531 51 20 0.0 0.0 0.00 0.08 0.00 86 1006.3
20260506233031 51 20 0.0 0.0 0.00 0.08 0.00 86 1006.2
20260506232531 52 20 0.0 0.0 0.00 0.08 0.00 86 1006.2
20260506232032 52 60 0.0 0.0 0.00 0.07 0.00 86 1006.2
20260506231532 52 3 0.0 0.0 0.00 0.07 0.00 86 1006.1
20260506231031 52 0 4.0 0.0 0.00 0.07 0.00 86 1006.1
20260506230531 52 0 4.0 0.0 0.00 0.06 0.00 86 1006.1
20260506230032 52 350 4.0 0.0 0.00 0.02 0.00 85 1006.2
20260506225532 52 22 4.0 0.0 0.00 0.01 0.00 85 1006.2
20260506225032 52 15 5.0 0.0 0.00 0.01 0.00 85 1006.3
20260506224532 52 310 4.0 0.0 0.00 0.01 0.00 85 1006.4
20260506224031 52 345 3.0 0.0 0.00 0.00 0.00 85 1006.3
20260506223531 52 10 4.0 0.0 0.00 0.00 0.00 85 1006.3
20260506223032 52 355 4.0 0.0 0.00 0.00 0.00 84 1006.4
20260506222531 52 305 6.0 0.0 0.00 0.00 0.00 84 1006.6
20260506222031 53 340 8.0 0.0 0.00 0.00 0.00 84 1006.6
20260506221532 53 300 21.0 0.0 0.00 0.00 0.00 83 1006.5
20260506221032 53 300 21.0 0.0 0.00 0.00 0.00 83 1006.5
20260506220532 54 302 8.0 0.0 0.00 0.00 0.00 83 1006.5
20260506220032 55 357 3.0 0.0 0.00 0.00 0.00 83 1006.2
20260506215532 55 0 3.0 0.0 0.00 0.00 0.00 83 1006.0
20260506215031 55 10 0.0 0.0 0.00 0.00 0.00 83 1005.9
20260506214532 55 357 0.0 0.0 0.00 0.00 0.00 83 1005.9
20260506214032 55 347 0.0 0.0 0.00 0.00 0.00 83 1005.9
20260506213532 55 347 0.0 0.0 0.00 0.00 0.00 83 1005.9
20260506213031 55 347 0.0 0.0 0.00 0.00 0.00 83 1005.9
20260506212531 55 347 2.0 0.0 0.00 0.00 0.00 83 1005.9
20260506212031 55 350 3.0 0.0 0.00 0.00 0.00 82 1005.8
20260506211531 55 22 0.0 0.0 0.00 0.00 0.00 82 1005.6
20260506211032 55 22 0.0 0.0 0.00 0.00 0.00 82 1005.6
20260506210531 55 22 0.0 0.0 0.00 0.00 0.00 82 1005.6
20260506210032 55 22 0.0 0.0 0.00 0.00 0.00 82 1005.7
20260506205532 55 22 0.0 0.0 0.00 0.00 0.00 82 1005.8
20260506205032 55 22 0.0 0.0 0.00 0.00 0.00 82 1005.7
20260506204531 55 10 0.0 0.0 0.00 0.00 0.00 82 1005.6
20260506204031 55 10 0.0 0.0 0.00 0.00 0.00 81 1005.5
20260506203531 55 20 0.0 0.0 0.00 0.00 0.00 81 1005.4
20260506203031 55 20 0.0 0.0 0.00 0.00 0.00 81 1005.5
20260506202532 55 10 3.0 0.0 0.00 0.00 0.00 81 1005.5
20260506202032 56 350 3.0 0.0 0.00 0.00 0.00 81 1005.5
20260506201532 56 0 0.0 0.0 0.00 0.00 0.00 80 1005.5
20260506201033 56 357 0.0 0.0 0.00 0.00 0.00 80 1005.5
20260506200531 56 357 0.0 0.0 0.00 0.00 0.00 80 1005.5
20260506200032 56 355 3.0 0.0 0.00 0.00 0.00 80 1005.5
20260506195532 56 355 0.0 0.0 0.00 0.00 0.00 79 1005.5
20260506195032 56 8 3.0 0.0 0.00 0.00 0.00 79 1005.6
20260506194532 57 355 2.0 0.0 0.00 0.00 0.00 79 1005.5
20260506194033 57 10 0.0 0.0 0.00 0.00 0.00 78 1005.4
20260506193532 57 10 0.0 0.0 0.00 0.00 0.00 78 1005.4
20260506193032 57 40 0.0 0.0 0.00 0.00 0.00 77 1005.4
20260506192532 57 40 0.0 0.0 0.00 0.00 0.00 77 1005.3
20260506192032 58 355 3.0 0.0 0.00 0.00 0.00 77 1005.2
20260506191532 58 50 3.0 0.0 0.00 0.00 0.00 76 1005.2
20260506191032 58 75 0.0 0.0 0.00 0.00 0.00 75 1005.1
20260506190532 58 15 0.0 0.0 0.00 0.00 0.00 75 1005.0
20260506190032 58 15 0.0 0.0 0.00 0.00 0.00 75 1004.9
20260506185532 58 27 0.0 0.0 0.00 0.00 0.00 74 1004.8
20260506185032 58 37 0.0 0.0 0.00 0.00 0.00 74 1004.8
20260506184532 59 105 0.0 0.0 0.00 0.00 0.00 73 1004.8
20260506184031 59 100 0.0 0.0 0.00 0.00 0.00 72 1004.8
20260506183532 59 45 0.0 0.0 0.00 0.00 0.00 71 1004.8
20260506183032 59 45 0.0 0.0 0.00 0.00 0.00 71 1004.8
20260506182531 60 3 4.0 0.0 0.00 0.00 0.00 70 1004.7
20260506182032 61 35 2.0 0.0 0.00 0.00 0.00 69 1004.7
20260506181531 61 62 3.0 0.0 0.00 0.00 0.00 68 1004.7
20260506181032 62 342 4.0 0.0 0.00 0.00 0.00 67 1004.6
20260506180532 62 332 4.0 0.0 0.00 0.00 0.00 66 1004.5
20260506180031 63 350 0.0 0.0 0.00 0.00 0.00 64 1004.5
20260506175531 63 8 0.0 0.0 0.00 0.00 0.00 63 1004.5
20260506175033 65 350 0.0 0.0 0.00 0.00 0.00 61 1004.6
20260506174532 65 357 0.0 0.0 0.00 0.00 0.00 60 1004.6
20260506174031 65 10 0.0 0.0 0.00 0.00 0.00 59 1004.6
20260506173532 66 22 0.0 0.0 0.00 0.00 0.00 59 1004.5
20260506173031 66 22 0.0 0.0 0.00 0.00 0.00 58 1004.5
20260506172532 66 25 0.0 0.0 0.00 0.00 0.00 58 1004.5
20260506172032 66 337 0.0 0.0 0.00 0.00 0.00 58 1004.4
20260506171531 66 352 0.0 0.0 0.00 0.00 0.00 57 1004.4
20260506171032 66 352 0.0 0.0 0.00 0.00 0.00 57 1004.4
20260506170531 66 352 0.0 0.0 0.00 0.00 0.00 57 1004.2
20260506170031 67 350 0.0 0.0 0.00 0.00 0.00 56 1004.2
20260506165531 67 340 2.0 0.0 0.00 0.00 0.00 55 1004.2
20260506165032 69 345 2.0 0.0 0.00 0.00 0.00 53 1004.2
20260506164532 69 340 6.0 0.0 0.00 0.00 0.00 52 1004.2
20260506164032 70 317 5.0 0.0 0.00 0.00 0.00 52 1004.4
20260506163531 71 357 2.0 0.0 0.00 0.00 0.00 51 1004.7
20260506163031 71 327 3.0 0.0 0.00 0.00 0.00 51 1004.7
20260506162531 71 5 4.0 0.0 0.00 0.00 0.00 51 1004.7
20260506161531 70 347 4.0 0.0 0.00 0.00 0.00 53 1004.8
20260506161032 70 345 4.0 0.0 0.00 0.00 0.00 53 1004.8
20260506160532 69 330 4.0 0.0 0.00 0.00 0.00 55 1004.9
20260506160032 69 282 5.0 0.0 0.00 0.00 0.00 54 1004.9
20260506155532 68 290 7.0 0.0 0.00 0.00 0.00 55 1005.0
20260506155032 68 12 5.0 0.0 0.00 0.00 0.00 55 1005.0
20260506154531 68 352 2.0 0.0 0.00 0.00 0.00 56 1005.0
20260506154032 67 325 4.0 0.0 0.00 0.00 0.00 58 1004.9
20260506153531 67 335 6.0 0.0 0.00 0.00 0.00 59 1004.9
20260506153033 68 337 3.0 0.0 0.00 0.00 0.00 59 1004.8
20260506152532 67 342 5.0 0.0 0.00 0.00 0.00 60 1005.1
20260506152031 67 335 3.0 0.0 0.00 0.00 0.00 59 1005.0
20260506151531 67 5 4.0 0.0 0.00 0.00 0.00 59 1005.0
20260506151032 66 0 3.0 0.0 0.00 0.00 0.00 60 1005.1
20260506150531 66 352 3.0 0.0 0.00 0.00 0.00 60 1004.9
20260506150031 66 332 4.0 0.0 0.00 0.00 0.00 58 1004.9
20260506145531 66 5 3.0 0.0 0.00 0.00 0.00 59 1004.8
20260506145032 66 5 6.0 0.0 0.00 0.00 0.00 57 1004.8
20260506144532 65 282 8.0 0.0 0.00 0.00 0.00 53 1004.8
20260506144031 65 237 9.0 0.0 0.00 0.00 0.00 53 1004.8
20260506143532 66 235 7.0 0.0 0.00 0.00 0.00 54 1004.8
20260506143031 66 260 10.0 0.0 0.00 0.00 0.00 51 1004.8
20260506142532 67 207 11.0 0.0 0.00 0.00 0.00 52 1004.8
20260506142032 67 200 13.0 0.0 0.00 0.00 0.00 51 1004.8
20260506141532 67 232 12.0 0.0 0.00 0.00 0.00 53 1004.9
20260506141032 68 265 13.0 0.0 0.00 0.00 0.00 52 1004.9
20260506140531 67 227 10.0 0.0 0.00 0.00 0.00 54 1005.1
20260506140031 67 207 11.0 0.0 0.00 0.00 0.00 54 1005.1
20260506135531 67 247 11.0 0.0 0.00 0.00 0.00 54 1005.3
20260506135031 66 232 10.0 0.0 0.00 0.00 0.00 53 1005.2
20260506134532 67 195 10.0 0.0 0.00 0.00 0.00 55 1005.0
20260506134032 67 177 11.0 0.0 0.00 0.00 0.00 54 1005.0
20260506133532 67 205 12.0 0.0 0.00 0.00 0.00 54 1005.0
20260506133031 67 220 12.0 0.0 0.00 0.00 0.00 54 1005.1
20260506132532 68 205 10.0 0.0 0.00 0.00 0.00 54 1005.2
20260506132031 67 232 8.0 0.0 0.00 0.00 0.00 56 1005.3
20260506131531 65 245 8.0 0.0 0.00 0.00 0.00 56 1005.1
20260506131032 65 235 11.0 0.0 0.00 0.00 0.00 56 1005.2
20260506130531 66 260 8.0 0.0 0.00 0.00 0.00 55 1005.3
20260506130031 66 260 8.0 0.0 0.00 0.00 0.00 56 1005.3
20260506125532 66 285 9.0 0.0 0.00 0.00 0.00 54 1005.2
20260506125032 66 257 10.0 0.0 0.00 0.00 0.00 56 1005.3
20260506124531 65 262 13.0 0.0 0.00 0.00 0.00 54 1005.4
20260506124032 65 242 10.0 0.0 0.00 0.00 0.00 58 1005.5
20260506123532 65 232 10.0 0.0 0.00 0.00 0.00 57 1005.4
20260506123032 65 235 13.0 0.0 0.00 0.00 0.00 56 1005.3
20260506122531 65 237 11.0 0.0 0.00 0.00 0.00 56 1005.4
20260506122032 65 220 15.0 0.0 0.00 0.00 0.00 56 1005.4
20260506121531 66 232 12.0 0.0 0.00 0.00 0.00 56 1005.5
20260506121031 66 230 14.0 0.0 0.00 0.00 0.00 55 1005.4
20260506120531 66 230 13.0 0.0 0.00 0.00 0.00 56 1005.4
20260506120031 66 225 14.0 0.0 0.00 0.00 0.00 55 1005.4
20260506115531 67 245 17.0 0.0 0.00 0.00 0.00 54 1005.4
20260506115031 67 240 15.0 0.0 0.00 0.00 0.00 55 1005.4
20260506114531 66 245 16.0 0.0 0.00 0.00 0.00 54 1005.3
20260506114031 67 245 16.0 0.0 0.00 0.00 0.00 54 1005.3
20260506113532 67 240 14.0 0.0 0.00 0.00 0.00 55 1005.4
20260506113032 66 240 14.0 0.0 0.00 0.00 0.00 56 1005.4
20260506112532 65 235 14.0 0.0 0.00 0.00 0.00 56 1005.4
20260506112032 65 245 15.0 0.0 0.00 0.00 0.00 57 1005.5
20260506111531 65 235 18.0 0.0 0.00 0.00 0.00 58 1005.4
20260506111031 65 222 15.0 0.0 0.00 0.00 0.00 59 1005.6
20260506110532 65 237 16.0 0.0 0.00 0.00 0.00 61 1005.6
20260506110031 65 237 16.0 0.0 0.00 0.00 0.00 61 1005.5
20260506105032 65 215 18.0 0.0 0.00 0.00 0.00 60 1005.5
20260506104531 65 242 15.0 0.0 0.00 0.00 0.00 61 1005.7
20260506104032 64 242 16.0 0.0 0.00 0.00 0.00 61 1005.5
20260506103532 64 250 19.0 0.0 0.00 0.00 0.00 60 1005.4
20260506103031 65 257 16.0 0.0 0.00 0.00 0.00 59 1005.6
20260506102532 65 255 20.0 0.0 0.00 0.00 0.00 60 1005.7
20260506102031 66 255 16.0 0.0 0.00 0.00 0.00 61 1005.6
20260506101531 65 260 12.0 0.0 0.00 0.00 0.00 61 1005.7
20260506101031 64 255 15.0 0.0 0.00 0.00 0.00 63 1005.5
20260506100531 64 255 12.0 0.0 0.00 0.00 0.00 63 1005.2
20260506100031 64 247 14.0 0.0 0.00 0.00 0.00 63 1005.2
20260506095531 64 257 18.0 0.0 0.00 0.00 0.00 62 1005.2
20260506095031 64 242 17.0 0.0 0.00 0.00 0.00 65 1005.2
20260506094532 63 240 16.0 0.0 0.00 0.00 0.00 64 1005.2
20260506094031 63 265 17.0 0.0 0.00 0.00 0.00 65 1005.1
20260506093531 63 250 16.0 0.0 0.00 0.00 0.00 66 1005.0
20260506093031 62 250 17.0 0.0 0.00 0.00 0.00 67 1005.1
20260506092532 62 252 16.0 0.0 0.00 0.00 0.00 65 1005.0
20260506092032 63 242 17.0 0.0 0.00 0.00 0.00 67 1005.0
20260506091531 62 230 15.0 0.0 0.00 0.00 0.00 67 1005.1
20260506091032 61 245 16.0 0.0 0.00 0.00 0.00 69 1005.1
20260506090532 60 240 16.0 0.0 0.00 0.00 0.00 68 1005.0
20260506090032 61 237 20.0 0.0 0.00 0.00 0.00 68 1005.1
20260506085531 61 237 17.0 0.0 0.00 0.00 0.00 68 1005.0
20260506085032 62 225 15.0 0.0 0.00 0.00 0.00 69 1004.9
20260506084531 61 245 16.0 0.0 0.00 0.00 0.00 69 1004.8
20260506084032 61 240 12.0 0.0 0.00 0.00 0.00 70 1004.7
20260506083532 60 235 19.0 0.0 0.00 0.00 0.00 69 1004.6
20260506083031 61 232 20.0 0.0 0.00 0.00 0.00 70 1004.7
20260506082532 61 255 18.0 0.0 0.00 0.00 0.00 70 1004.6
20260506082032 60 250 17.0 0.0 0.00 0.00 0.00 71 1004.5
20260506081531 60 250 16.0 0.0 0.00 0.00 0.00 70 1004.5
20260506081031 61 247 18.0 0.0 0.00 0.00 0.00 70 1004.4
20260506080531 61 252 13.0 0.0 0.00 0.00 0.00 71 1004.2
20260506073031 60 235 21.0 0.0 0.00 0.00 0.00 75 1004.1
20260506072532 60 237 20.0 0.0 0.00 0.00 0.00 74 1004.1
20260506072031 60 245 16.0 0.0 0.00 0.00 0.00 75 1004.3
20260506071532 60 237 16.0 0.0 0.00 0.00 0.00 75 1004.3
20260506071031 60 225 18.0 0.0 0.00 0.00 0.00 75 1004.3
20260506070531 59 235 21.0 0.0 0.00 0.00 0.00 75 1004.5